#timestamp,LO_Frequency,Hit,StdDev 
1556823615.6,286047000.9,N
1556823635.4,286046998.3,N
1556823655.3,286046999.2,N
1556823675.1,286046996.8,N
1556823676.0,286046996.8,N
1556823695.8,286046997.2,N
1556823715.7,286046995.8,Y
1556823735.5,286046997.2,P
1556823755.4,286046995.8,P
1556823775.2,286046993.4,P
1556823795.0,286046996.0,N
1556823795.9,286046996.0,N
1556823815.8,286046998.0,N
1556823835.6,286046997.1,N
1556823855.4,286046997.5,N
1556823875.3,286046999.2,N
1556823895.1,286046998.9,N
1556823915.9,286046998.5,N
1556823935.7,286047001.2,N
1556823955.5,286047000.5,N
1556823975.4,286046998.1,N
1556823995.2,286046998.7,N
1556824015.0,286046998.9,N
1556824015.9,286046998.9,N
1556824035.8,286046998.3,N
1556824055.6,286046999.5,N
1556824075.5,286046998.7,N
1556824095.3,286046998.2,N
1556824115.1,286047000.5,N
1556824135.9,286047001.1,N
1556824155.7,286046998.2,N
1556824175.5,286046999.0,N
1556824195.4,286046998.5,N
1556824215.2,286046999.0,N
1556824235.1,286046997.7,N
1556824236.0,286046997.7,N
1556824255.8,286046996.7,N
1556824275.6,286046996.5,N
1556824295.5,286046998.2,N
1556824315.3,286046999.2,N
1556824335.2,286046997.9,N
1556824355.9,286046996.7,N
1556824375.7,286046996.6,N
1556824395.6,286046997.3,N
1556824415.4,286046999.2,N
1556824435.2,286047000.8,N
1556824455.1,286046998.4,N
1556824456.0,286046998.4,N
1556824475.8,286046998.7,N
1556824495.7,286047000.0,N
1556824515.5,286047001.1,N
1556824535.3,286047001.2,N
1556824555.2,286046998.1,N
1556824575.0,286047001.6,N
1556824575.9,286047001.6,N
1556824595.7,286047002.7,N
1556824615.6,286047000.7,N
1556824635.4,286047000.7,N
1556824655.3,286046998.3,N
1556824675.1,286047000.0,N
1556824676.0,286047000.0,N
1556824695.8,286047000.9,N
1556824715.7,286046998.6,N
1556824735.5,286046999.5,N
1556824755.3,286046997.1,N
1556824775.2,286046996.6,N
1556824795.0,286047001.1,N
1556824795.9,286047001.1,N
1556824815.8,286047001.2,N
1556824835.6,286046999.9,N
1556824855.4,286047001.4,N
1556824875.3,286047005.6,Y
1556824895.1,286047006.7,P
1556824915.9,286047005.0,N
1556824935.7,286047003.5,N
1556824955.5,286047001.8,N
1556824975.4,286047002.4,N
1556824995.2,286047000.5,N
1556825015.0,286046998.2,N
1556825015.9,286046998.2,N
1556825035.8,286046996.6,N
1556825055.6,286046997.3,N
1556825075.4,286046997.7,N
1556825095.3,286046998.0,N
1556825115.1,286046995.3,N
1556825135.9,286046999.4,N
1556825155.7,286046996.6,N
1556825175.5,286046997.1,N
1556825195.4,286046996.8,N
1556825215.2,286046999.6,N
1556825235.0,286046997.0,N
1556825235.9,286046997.0,N
1556825255.8,286046996.8,N
1556825275.6,286046996.8,N
1556825295.5,286046997.3,N
1556825315.3,286046997.7,N
1556825335.1,286046999.5,N
1556825355.9,286046997.5,N
1556825375.7,286046997.6,N
1556825395.5,286046996.1,N
1556825415.4,286046996.1,N
1556825435.2,286046995.6,N
1556825455.1,286046995.6,N
1556825456.0,286046995.6,N
1556825475.8,286046997.1,N
1556825495.6,286046996.6,N
1556825515.5,286046999.5,N
1556825535.3,286046994.9,Y
1556825555.2,286046998.3,P
1556825575.9,286046996.5,P
1556825595.7,286046995.3,P
1556825615.6,286046997.4,N
1556825635.4,286046998.0,N
1556825655.2,286046999.5,N
1556825675.1,286046999.6,N
1556825676.0,286046999.6,N
1556825695.8,286046997.1,N
1556825715.7,286046997.3,N
1556825735.5,286046995.7,Y
1556825755.3,286046999.1,P
1556825775.2,286046998.3,N
1556825795.0,286046996.6,P
1556825795.9,286046996.6,Y
1556825815.8,286047002.3,P
1556825835.6,286047004.4,N
1556825855.4,286047003.5,N
1556825875.3,286047003.7,N
1556825895.1,286047003.2,N
1556825915.8,286047005.8,N
1556825935.7,286047004.9,N
1556825955.5,286047005.3,N
1556825975.4,286047005.5,N
1556825995.2,286047005.4,N
1556826015.0,286047003.0,N
1556826015.9,286047003.0,N
1556826035.8,286047003.0,N
1556826055.6,286047005.9,Y
1556826075.5,286046998.1,P
1556826095.3,286047000.0,N
1556826115.1,286047000.2,N
1556826135.9,286047000.4,N
1556826155.7,286047000.1,N
1556826175.5,286046999.9,N
1556826195.4,286047002.0,N
1556826215.2,286047003.4,N
1556826235.1,286047003.8,N
1556826236.0,286047003.8,N
1556826255.8,286047001.3,N
1556826275.6,286047002.4,N
1556826295.5,286046999.9,N
1556826315.3,286047002.7,N
1556826335.2,286047002.7,N
1556826355.9,286047000.2,N
1556826375.7,286047001.8,N
1556826395.6,286047002.6,N
1556826415.4,286047002.6,N
1556826435.2,286046999.9,N
1556826455.1,286047000.8,N
1556826456.0,286047000.8,N
1556826475.8,286046998.7,N
1556826495.7,286046998.3,N
1556826515.5,286046998.3,N
1556826565.4,286046997.1,E
1556826575.3,286046999.4,N
1556826595.1,286046999.9,P
1556826615.9,286047000.1,N
1556826635.7,286047002.6,Y
1556826655.5,286047002.6,P
1556826675.4,286046999.9,N
1556826695.2,286047004.1,P
1556826715.1,286047004.0,N
1556826716.0,286047004.0,N
1556826735.8,286047003.5,N
1556826755.6,286047003.9,N
1556826775.5,286047003.0,N
1556826795.3,286047004.7,N
1556826815.1,286047003.4,N
1556826835.9,286047005.5,Y
1556826855.7,286047001.6,P
1556826875.6,286047001.5,N
1556826895.4,286047001.4,N
1556826915.2,286047002.7,Y
1556826935.1,286047000.1,P
1556826936.0,286047000.1,N
1556826955.8,286047002.0,N
1556826975.7,286046999.7,N
1556826995.5,286046999.9,N
1556827015.3,286047001.4,N
1556827035.2,286047002.7,N
1556827055.0,286047000.2,N
1556827055.9,286047000.2,N
1556827075.7,286047002.8,N
1556827095.6,286047002.7,N
1556827115.4,286046999.8,N
1556827135.3,286046998.5,N
1556827155.1,286046999.0,N
1556827156.0,286046999.0,N
1556827175.8,286046998.7,N
1556827195.7,286047000.7,N
